Satellite-Ground Cal/Val Site Overpasses Predictions

Prediction of Satellite NPP Overpassing Cal/Val Site: Antarctic Dome C

Ground Cal/Val Site Location: Latitude: -75.10, Longitude: 123.35; Satellite-Ground Site NADIR distance within 100 km.

Table of predicted overpasses for the next 14.0 days since TLE Epoch: 5/4/2024
Interval Starting Time Ending Time Minimum Distance Time Minimum Distance (km)
1 05/05/2024 07:32:11 05/05/2024 07:32:40 05/05/2024 07:32:26 4.74
2 05/08/2024 14:55:37 05/08/2024 14:56:05 05/08/2024 14:55:51 24.06
3 05/09/2024 14:36:53 05/09/2024 14:37:09 05/09/2024 14:37:01 83.18
4 05/10/2024 07:38:26 05/10/2024 07:38:53 05/10/2024 07:38:39 40.38
5 05/11/2024 07:19:38 05/11/2024 07:19:59 05/11/2024 07:19:48 69.57
6 05/13/2024 15:01:52 05/13/2024 15:02:15 05/13/2024 15:02:04 61.05
7 05/14/2024 14:43:01 05/14/2024 14:43:26 05/14/2024 14:43:14 48.46
8 05/15/2024 07:44:43 05/15/2024 07:45:02 05/15/2024 07:44:52 75.25
